Time,TemperatureF,DewpointF,PressureIn,WindDirection,WindDirectionDegrees,WindSpeedMPH,WindSpeedGustMPH,Humidity,HourlyPrecipIn,Conditions,Clouds,dailyrainin,SolarRadiationWatts/m^2,SoftwareType,DateUTC
2013-11-30 00:01:00,22.6,20.5,30.56,SE,129,0.0,0.0,91,0.00,,,0.00,0.0,meteobridge,2013-11-30 05:01:00,
2013-11-30 00:02:00,22.6,20.5,30.56,SE,129,0.0,0.0,91,0.00,,,0.00,0.0,meteobridge,2013-11-30 05:02:00,
2013-11-30 00:03:00,22.6,20.5,30.56,SE,129,0.0,0.0,91,0.00,,,0.00,0.0,meteobridge,2013-11-30 05:03:00,
2013-11-30 00:08:00,22.6,20.7,30.56,SE,129,0.0,0.0,92,0.00,,,0.00,0.0,meteobridge,2013-11-30 05:08:00,
2013-11-30 00:13:00,22.8,20.8,30.56,SE,129,0.0,0.9,92,0.00,,,0.00,0.0,meteobridge,2013-11-30 05:13:00,
2013-11-30 00:19:00,22.8,20.8,30.56,SE,129,0.0,2.0,92,0.00,,,0.00,0.0,meteobridge,2013-11-30 05:19:00,
2013-11-30 00:24:00,23.0,21.0,30.55,SE,130,0.0,0.9,92,0.00,,,0.00,0.0,meteobridge,2013-11-30 05:24:00,
2013-11-30 00:29:00,23.0,21.0,30.55,SE,129,0.0,0.0,92,0.00,,,0.00,0.0,meteobridge,2013-11-30 05:29:00,
2013-11-30 00:35:00,23.2,21.2,30.55,SE,129,0.0,0.0,92,0.00,,,0.00,0.0,meteobridge,2013-11-30 05:35:00,
2013-11-30 00:40:00,23.2,21.2,30.55,SE,129,0.0,0.9,92,0.00,,,0.00,0.0,meteobridge,2013-11-30 05:40:00,
2013-11-30 00:45:00,23.4,21.4,30.55,SE,129,0.9,0.9,92,0.00,,,0.00,0.0,meteobridge,2013-11-30 05:45:00,
2013-11-30 00:50:00,23.5,21.7,30.55,SE,129,0.0,0.9,93,0.00,,,0.00,0.0,meteobridge,2013-11-30 05:50:00,
2013-11-30 00:55:00,23.7,21.9,30.54,SE,143,0.9,2.9,93,0.00,,,0.00,0.0,meteobridge,2013-11-30 05:55:00,
2013-11-30 01:00:00,23.9,22.1,30.54,SE,143,0.9,2.0,93,0.00,,,0.00,0.0,meteobridge,2013-11-30 06:00:00,
2013-11-30 01:05:00,24.1,22.3,30.54,SSE,163,0.0,2.0,93,0.00,,,0.00,0.0,meteobridge,2013-11-30 06:05:00,
2013-11-30 01:10:00,24.1,22.3,30.54,South,175,0.9,2.9,93,0.00,,,0.00,0.0,meteobridge,2013-11-30 06:10:00,
2013-11-30 01:15:00,24.3,22.3,30.54,South,171,2.0,2.0,92,0.00,,,0.00,0.0,meteobridge,2013-11-30 06:15:00,
2013-11-30 01:20:00,24.3,22.3,30.54,South,175,0.0,0.0,92,0.00,,,0.00,0.0,meteobridge,2013-11-30 06:20:00,
2013-11-30 01:25:00,24.4,22.5,30.53,South,171,0.0,0.0,92,0.00,,,0.00,0.0,meteobridge,2013-11-30 06:25:00,
2013-11-30 01:30:00,24.4,22.5,30.54,South,171,0.0,0.0,92,0.00,,,0.00,0.0,meteobridge,2013-11-30 06:30:00,
2013-11-30 01:35:00,24.4,22.5,30.54,South,171,0.0,0.9,92,0.00,,,0.00,0.0,meteobridge,2013-11-30 06:35:00,
2013-11-30 01:40:00,24.4,22.5,30.54,South,171,0.0,0.0,92,0.00,,,0.00,0.0,meteobridge,2013-11-30 06:40:00,
2013-11-30 01:45:00,24.4,22.3,30.54,South,175,0.0,0.0,91,0.00,,,0.00,0.0,meteobridge,2013-11-30 06:45:00,
2013-11-30 01:50:00,24.4,22.3,30.53,South,171,0.0,0.0,91,0.00,,,0.00,0.0,meteobridge,2013-11-30 06:50:00,
2013-11-30 01:55:00,24.4,22.3,30.53,South,175,0.0,0.9,91,0.00,,,0.00,0.0,meteobridge,2013-11-30 06:55:00,
2013-11-30 02:00:00,24.4,22.5,30.53,South,171,0.0,0.9,92,0.00,,,0.00,0.0,meteobridge,2013-11-30 07:00:00,
2013-11-30 02:05:00,24.4,22.5,30.53,South,171,0.9,0.9,92,0.00,,,0.00,0.0,meteobridge,2013-11-30 07:05:00,
2013-11-30 02:10:00,24.4,22.5,30.53,South,171,0.0,0.0,92,0.00,,,0.00,0.0,meteobridge,2013-11-30 07:10:00,
2013-11-30 02:15:00,24.4,22.5,30.53,South,171,0.0,0.9,92,0.00,,,0.00,0.0,meteobridge,2013-11-30 07:15:00,
2013-11-30 02:21:00,24.4,22.5,30.53,South,171,0.0,0.0,92,0.00,,,0.00,0.0,meteobridge,2013-11-30 07:21:00,
2013-11-30 02:26:00,24.4,22.5,30.52,South,175,0.0,0.0,92,0.00,,,0.00,0.0,meteobridge,2013-11-30 07:26:00,
2013-11-30 02:31:00,24.4,22.5,30.52,South,171,0.0,0.0,92,0.00,,,0.00,0.0,meteobridge,2013-11-30 07:31:00,
2013-11-30 02:36:00,24.6,22.6,30.52,South,171,0.0,0.0,92,0.00,,,0.00,0.0,meteobridge,2013-11-30 07:36:00,
2013-11-30 02:41:00,24.6,22.8,30.52,South,171,0.0,0.0,93,0.00,,,0.00,0.0,meteobridge,2013-11-30 07:41:00,
2013-11-30 02:46:00,24.8,23.0,30.52,South,171,0.0,0.0,93,0.00,,,0.00,0.0,meteobridge,2013-11-30 07:46:00,
2013-11-30 02:51:00,24.8,23.0,30.51,South,175,0.9,2.0,93,0.00,,,0.00,0.0,meteobridge,2013-11-30 07:51:00,
2013-11-30 02:56:00,25.0,23.2,30.52,South,175,0.0,0.9,93,0.00,,,0.00,0.0,meteobridge,2013-11-30 07:56:00,
2013-11-30 03:01:00,25.2,23.4,30.51,South,175,0.0,0.9,93,0.00,,,0.00,0.0,meteobridge,2013-11-30 08:01:00,
2013-11-30 03:06:00,25.3,23.5,30.51,SE,145,0.9,0.9,93,0.00,,,0.00,0.0,meteobridge,2013-11-30 08:06:00,
2013-11-30 03:11:00,25.3,23.5,30.51,SE,145,0.0,0.9,93,0.00,,,0.00,0.0,meteobridge,2013-11-30 08:11:00,
2013-11-30 03:16:00,25.5,23.7,30.51,SE,145,0.9,2.0,93,0.00,,,0.00,0.0,meteobridge,2013-11-30 08:16:00,
2013-11-30 03:21:00,25.9,24.1,30.50,ESE,123,0.9,2.0,93,0.00,,,0.00,0.0,meteobridge,2013-11-30 08:21:00,
2013-11-30 03:26:00,26.1,24.1,30.50,SE,145,2.0,2.9,92,0.00,,,0.00,0.0,meteobridge,2013-11-30 08:26:00,
2013-11-30 03:31:00,26.1,24.1,30.50,SE,145,2.0,2.9,92,0.00,,,0.00,0.0,meteobridge,2013-11-30 08:31:00,
2013-11-30 03:36:00,26.4,24.4,30.49,SSW,198,2.0,2.9,92,0.00,,,0.00,0.0,meteobridge,2013-11-30 08:36:00,
2013-11-30 03:41:00,26.8,24.3,30.49,South,170,0.9,4.0,90,0.00,,,0.00,0.0,meteobridge,2013-11-30 08:41:00,
2013-11-30 03:46:00,27.0,24.4,30.49,SSE,150,0.0,2.9,90,0.00,,,0.00,0.0,meteobridge,2013-11-30 08:46:00,
2013-11-30 03:51:00,27.3,24.4,30.49,ESE,116,2.0,2.9,89,0.00,,,0.00,0.0,meteobridge,2013-11-30 08:51:00,
2013-11-30 03:56:00,27.7,24.8,30.49,SE,143,2.0,2.0,89,0.00,,,0.00,0.0,meteobridge,2013-11-30 08:56:00,
2013-11-30 04:02:00,27.9,24.8,30.48,SE,140,2.0,4.9,88,0.00,,,0.00,0.0,meteobridge,2013-11-30 09:02:00,
2013-11-30 04:07:00,28.2,24.8,30.48,SE,139,2.0,2.9,87,0.00,,,0.00,0.0,meteobridge,2013-11-30 09:07:00,
2013-11-30 04:12:00,28.4,25.0,30.48,SSE,149,2.0,4.0,87,0.00,,,0.00,0.0,meteobridge,2013-11-30 09:12:00,
2013-11-30 04:17:00,28.6,25.2,30.48,South,185,0.9,4.9,87,0.00,,,0.00,0.0,meteobridge,2013-11-30 09:17:00,
2013-11-30 04:22:00,28.8,25.2,30.48,SSW,195,2.0,2.9,86,0.00,,,0.00,0.0,meteobridge,2013-11-30 09:22:00,
2013-11-30 04:27:00,28.9,25.3,30.48,South,171,2.0,4.0,86,0.00,,,0.00,0.0,meteobridge,2013-11-30 09:27:00,
2013-11-30 04:32:00,29.1,25.2,30.48,South,185,2.0,4.9,85,0.00,,,0.00,0.0,meteobridge,2013-11-30 09:32:00,
2013-11-30 04:37:00,29.3,25.3,30.48,ESE,112,2.9,4.9,85,0.00,,,0.00,0.0,meteobridge,2013-11-30 09:37:00,
2013-11-30 04:42:00,29.5,25.5,30.48,South,185,0.0,2.0,85,0.00,,,0.00,0.0,meteobridge,2013-11-30 09:42:00,
2013-11-30 04:47:00,29.5,25.5,30.47,SSW,202,2.0,2.9,85,0.00,,,0.00,0.0,meteobridge,2013-11-30 09:47:00,
2013-11-30 04:52:00,29.5,25.5,30.47,SSW,193,2.9,2.9,85,0.00,,,0.00,0.0,meteobridge,2013-11-30 09:52:00,
2013-11-30 04:58:00,29.5,25.5,30.47,SSE,152,0.0,2.9,85,0.00,,,0.00,0.0,meteobridge,2013-11-30 09:58:00,
2013-11-30 05:03:00,29.5,25.5,30.46,SE,143,0.9,4.9,85,0.00,,,0.00,0.0,meteobridge,2013-11-30 10:03:00,
2013-11-30 05:08:00,29.5,25.9,30.46,SE,129,2.9,4.0,86,0.00,,,0.00,0.0,meteobridge,2013-11-30 10:08:00,
2013-11-30 05:13:00,29.5,25.9,30.46,SSE,160,2.0,4.9,86,0.00,,,0.00,0.0,meteobridge,2013-11-30 10:13:00,
2013-11-30 05:18:00,29.7,25.7,30.46,South,175,2.0,2.9,85,0.00,,,0.00,0.0,meteobridge,2013-11-30 10:18:00,
2013-11-30 05:23:00,29.8,25.9,30.46,SSW,204,2.9,6.0,85,0.00,,,0.00,0.0,meteobridge,2013-11-30 10:23:00,
2013-11-30 05:28:00,29.8,25.9,30.46,SSE,155,2.0,6.9,85,0.00,,,0.00,0.0,meteobridge,2013-11-30 10:28:00,
2013-11-30 05:33:00,30.0,26.1,30.46,South,185,0.9,4.9,85,0.00,,,0.00,0.0,meteobridge,2013-11-30 10:33:00,
2013-11-30 05:38:00,30.0,26.1,30.46,South,191,2.0,4.0,85,0.00,,,0.00,0.0,meteobridge,2013-11-30 10:38:00,
2013-11-30 05:43:00,30.0,26.1,30.45,SSE,156,2.9,4.9,85,0.00,,,0.00,0.0,meteobridge,2013-11-30 10:43:00,
2013-11-30 05:48:00,30.2,26.2,30.45,SSE,149,2.0,4.0,85,0.00,,,0.00,0.0,meteobridge,2013-11-30 10:48:00,
2013-11-30 05:53:00,30.2,26.2,30.45,South,191,4.0,6.0,85,0.00,,,0.00,0.0,meteobridge,2013-11-30 10:53:00,
2013-11-30 05:58:00,30.4,26.4,30.45,South,175,2.9,2.9,85,0.00,,,0.00,0.0,meteobridge,2013-11-30 10:58:00,
2013-11-30 06:04:00,30.4,26.4,30.45,SSE,147,2.0,2.9,85,0.00,,,0.00,0.0,meteobridge,2013-11-30 11:04:00,
2013-11-30 06:09:00,30.2,26.2,30.44,SSE,165,0.9,4.9,85,0.00,,,0.00,0.0,meteobridge,2013-11-30 11:09:00,
2013-11-30 06:14:00,30.2,26.2,30.44,South,190,0.9,4.0,85,0.00,,,0.00,0.0,meteobridge,2013-11-30 11:14:00,
2013-11-30 06:19:00,30.2,26.2,30.44,SSE,157,2.0,6.0,85,0.00,,,0.00,0.0,meteobridge,2013-11-30 11:19:00,
2013-11-30 06:24:00,30.2,26.2,30.45,South,185,0.0,2.9,85,0.00,,,0.00,0.0,meteobridge,2013-11-30 11:24:00,
2013-11-30 06:29:00,30.0,26.1,30.45,SSW,203,2.0,6.0,85,0.00,,,0.00,0.0,meteobridge,2013-11-30 11:29:00,
2013-11-30 06:34:00,30.2,26.2,30.44,South,189,4.0,4.0,85,0.00,,,0.00,0.0,meteobridge,2013-11-30 11:34:00,
2013-11-30 06:39:00,30.2,26.2,30.44,South,175,0.9,4.9,85,0.00,,,0.00,0.0,meteobridge,2013-11-30 11:39:00,
2013-11-30 06:44:00,30.2,26.2,30.44,South,175,4.9,6.0,85,0.00,,,0.00,0.0,meteobridge,2013-11-30 11:44:00,
2013-11-30 06:49:00,30.4,26.4,30.43,South,180,6.0,6.0,85,0.00,,,0.00,0.0,meteobridge,2013-11-30 11:49:00,
2013-11-30 06:55:00,30.4,26.1,30.43,SSW,192,0.9,2.9,84,0.00,,,0.00,0.0,meteobridge,2013-11-30 11:55:00,
2013-11-30 07:00:00,30.4,26.1,30.43,SSE,158,2.9,4.9,84,0.00,,,0.00,0.0,meteobridge,2013-11-30 12:00:00,
2013-11-30 07:05:00,30.4,26.1,30.43,SSE,168,2.0,4.0,84,0.00,,,0.00,0.0,meteobridge,2013-11-30 12:05:00,
2013-11-30 07:10:00,30.4,26.1,30.43,SE,142,2.0,2.9,84,0.00,,,0.00,0.0,meteobridge,2013-11-30 12:10:00,
2013-11-30 07:15:00,30.2,25.9,30.43,SE,137,0.9,4.0,84,0.00,,,0.00,0.0,meteobridge,2013-11-30 12:15:00,
2013-11-30 07:20:00,30.0,25.7,30.43,South,175,2.9,4.0,84,0.00,,,0.00,0.0,meteobridge,2013-11-30 12:20:00,
2013-11-30 07:25:00,29.8,25.5,30.43,South,180,0.9,4.0,84,0.00,,,0.00,0.0,meteobridge,2013-11-30 12:25:00,
2013-11-30 07:30:00,29.8,25.5,30.42,South,180,0.9,2.9,84,0.00,,,0.00,0.0,meteobridge,2013-11-30 12:30:00,
2013-11-30 07:35:00,29.7,25.3,30.42,SSE,164,0.9,2.9,84,0.00,,,0.00,0.0,meteobridge,2013-11-30 12:35:00,
2013-11-30 07:40:00,29.5,25.2,30.42,SSE,165,2.0,2.0,84,0.00,,,0.00,0.0,meteobridge,2013-11-30 12:40:00,
2013-11-30 07:46:00,29.5,25.2,30.43,SSE,165,0.0,0.9,84,0.00,,,0.00,0.0,meteobridge,2013-11-30 12:46:00,
2013-11-30 07:51:00,29.1,25.0,30.42,SSE,164,2.0,2.9,84,0.00,,,0.00,5.0,meteobridge,2013-11-30 12:51:00,
2013-11-30 07:56:00,28.9,25.0,30.42,SSE,164,0.0,2.0,85,0.00,,,0.00,7.0,meteobridge,2013-11-30 12:56:00,
2013-11-30 08:01:00,28.9,25.0,30.42,South,171,0.9,2.0,85,0.00,,,0.00,11.0,meteobridge,2013-11-30 13:01:00,
2013-11-30 08:06:00,28.8,24.8,30.42,South,171,0.9,2.0,85,0.00,,,0.00,12.0,meteobridge,2013-11-30 13:06:00,
2013-11-30 08:11:00,28.8,24.8,30.42,SSW,200,0.9,2.0,85,0.00,,,0.00,18.0,meteobridge,2013-11-30 13:11:00,
2013-11-30 08:16:00,28.6,24.6,30.42,SSW,192,2.9,4.9,85,0.00,,,0.00,19.0,meteobridge,2013-11-30 13:16:00,
2013-11-30 08:21:00,28.8,24.8,30.42,South,185,2.0,4.0,85,0.00,,,0.00,21.0,meteobridge,2013-11-30 13:21:00,
2013-11-30 08:26:00,28.8,24.8,30.42,SSW,192,2.0,2.0,85,0.00,,,0.00,25.0,meteobridge,2013-11-30 13:26:00,
2013-11-30 08:31:00,28.8,24.6,30.42,SW,214,2.0,2.9,84,0.00,,,0.00,32.0,meteobridge,2013-11-30 13:31:00,
2013-11-30 08:36:00,28.9,24.8,30.42,South,190,2.0,4.9,84,0.00,,,0.00,44.0,meteobridge,2013-11-30 13:36:00,
2013-11-30 08:41:00,29.1,24.6,30.42,SW,214,2.9,4.9,83,0.00,,,0.00,53.0,meteobridge,2013-11-30 13:41:00,
2013-11-30 08:46:00,29.7,25.2,30.42,South,185,2.9,4.0,83,0.00,,,0.00,58.0,meteobridge,2013-11-30 13:46:00,
2013-11-30 08:52:00,30.0,25.2,30.41,SW,225,0.9,4.9,82,0.00,,,0.00,69.0,meteobridge,2013-11-30 13:52:00,
2013-11-30 08:57:00,30.4,25.0,30.41,SSW,194,2.0,4.9,80,0.00,,,0.00,56.0,meteobridge,2013-11-30 13:57:00,
2013-11-30 09:02:00,30.6,25.2,30.41,SSW,204,2.9,6.0,80,0.00,,,0.00,70.0,meteobridge,2013-11-30 14:02:00,
2013-11-30 09:07:00,30.7,25.3,30.41,SW,236,2.0,2.9,80,0.00,,,0.00,58.0,meteobridge,2013-11-30 14:07:00,
2013-11-30 09:12:00,30.7,25.0,30.41,SSW,202,0.0,2.9,79,0.00,,,0.00,62.0,meteobridge,2013-11-30 14:12:00,
2013-11-30 09:17:00,30.9,25.2,30.40,South,175,2.0,2.9,79,0.00,,,0.00,72.0,meteobridge,2013-11-30 14:17:00,
2013-11-30 09:22:00,30.9,25.2,30.40,WSW,243,2.0,6.0,79,0.00,,,0.00,98.0,meteobridge,2013-11-30 14:22:00,
2013-11-30 09:27:00,31.1,25.3,30.40,SSE,167,4.0,4.0,79,0.00,,,0.00,105.0,meteobridge,2013-11-30 14:27:00,
2013-11-30 09:32:00,31.3,25.2,30.39,South,170,4.0,6.9,78,0.00,,,0.00,183.0,meteobridge,2013-11-30 14:32:00,
2013-11-30 09:37:00,31.6,25.9,30.38,South,175,4.9,6.9,79,0.00,,,0.00,172.0,meteobridge,2013-11-30 14:37:00,
2013-11-30 09:42:00,31.8,25.5,30.38,SSW,201,4.9,4.9,77,0.00,,,0.00,179.0,meteobridge,2013-11-30 14:42:00,
2013-11-30 09:47:00,32.2,26.1,30.39,WSW,249,4.0,6.9,78,0.00,,,0.00,162.0,meteobridge,2013-11-30 14:47:00,
2013-11-30 09:52:00,32.4,25.9,30.38,SSW,199,4.0,6.0,77,0.00,,,0.00,195.0,meteobridge,2013-11-30 14:52:00,
2013-11-30 09:57:00,32.5,25.9,30.38,SW,226,0.0,4.0,76,0.00,,,0.00,188.0,meteobridge,2013-11-30 14:57:00,
2013-11-30 10:02:00,32.5,25.5,30.38,SSE,156,4.9,6.9,75,0.00,,,0.00,214.0,meteobridge,2013-11-30 15:02:00,
2013-11-30 10:07:00,32.9,25.9,30.38,SSW,210,4.0,8.1,75,0.00,,,0.00,179.0,meteobridge,2013-11-30 15:07:00,
2013-11-30 10:12:00,33.1,26.1,30.38,SSW,202,2.9,6.9,75,0.00,,,0.00,169.0,meteobridge,2013-11-30 15:12:00,
2013-11-30 10:17:00,33.3,25.9,30.37,SSE,157,8.1,10.1,74,0.00,,,0.00,176.0,meteobridge,2013-11-30 15:17:00,
2013-11-30 10:23:00,33.3,25.9,30.37,SSE,154,4.0,6.9,74,0.00,,,0.00,283.0,meteobridge,2013-11-30 15:23:00,
2013-11-30 10:28:00,33.6,26.2,30.37,South,191,0.9,4.9,74,0.00,,,0.00,329.0,meteobridge,2013-11-30 15:28:00,
2013-11-30 10:33:00,34.2,26.4,30.36,SSE,165,2.9,4.9,73,0.00,,,0.00,311.0,meteobridge,2013-11-30 15:33:00,
2013-11-30 10:38:00,34.5,26.4,30.36,South,175,6.9,10.1,72,0.00,,,0.00,373.0,meteobridge,2013-11-30 15:38:00,
2013-11-30 10:43:00,34.9,26.8,30.36,SW,227,2.9,8.1,72,0.00,,,0.00,383.0,meteobridge,2013-11-30 15:43:00,
2013-11-30 10:48:00,35.1,26.2,30.35,SW,218,6.0,12.1,70,0.00,,,0.00,320.0,meteobridge,2013-11-30 15:48:00,
2013-11-30 10:53:00,35.2,26.4,30.35,South,185,6.0,8.9,70,0.00,,,0.00,480.0,meteobridge,2013-11-30 15:53:00,
2013-11-30 10:58:00,35.6,26.8,30.35,South,171,12.1,12.1,70,0.00,,,0.00,436.0,meteobridge,2013-11-30 15:58:00,
2013-11-30 11:03:00,36.0,27.1,30.34,SSW,193,2.9,10.1,70,0.00,,,0.00,288.0,meteobridge,2013-11-30 16:03:00,
2013-11-30 11:08:00,36.1,26.6,30.34,WSW,237,4.9,8.9,68,0.00,,,0.00,243.0,meteobridge,2013-11-30 16:08:00,
2013-11-30 11:13:00,36.1,26.6,30.33,South,180,4.0,8.1,68,0.00,,,0.00,202.0,meteobridge,2013-11-30 16:13:00,
2013-11-30 11:18:00,36.1,27.0,30.33,SSW,204,2.9,6.9,69,0.00,,,0.00,531.0,meteobridge,2013-11-30 16:18:00,
2013-11-30 11:23:00,36.5,27.3,30.33,SW,233,8.1,8.9,69,0.00,,,0.00,473.0,meteobridge,2013-11-30 16:23:00,
2013-11-30 11:28:00,36.9,27.0,30.32,SW,214,4.0,8.1,67,0.00,,,0.00,497.0,meteobridge,2013-11-30 16:28:00,
2013-11-30 11:33:00,37.2,27.3,30.32,SSW,198,4.0,11.0,67,0.00,,,0.00,371.0,meteobridge,2013-11-30 16:33:00,
2013-11-30 11:38:00,37.6,27.7,30.31,South,185,4.0,8.1,67,0.00,,,0.00,376.0,meteobridge,2013-11-30 16:38:00,
2013-11-30 11:43:00,37.8,27.5,30.31,SSE,156,4.9,8.1,66,0.00,,,0.00,485.0,meteobridge,2013-11-30 16:43:00,
2013-11-30 11:48:00,37.8,27.1,30.30,SW,219,2.0,8.1,65,0.00,,,0.00,225.0,meteobridge,2013-11-30 16:48:00,
2013-11-30 11:53:00,37.6,27.3,30.30,SW,225,2.0,4.9,66,0.00,,,0.00,360.0,meteobridge,2013-11-30 16:53:00,
2013-11-30 11:58:00,37.8,27.5,30.30,WSW,242,2.9,10.1,66,0.00,,,0.00,450.0,meteobridge,2013-11-30 16:58:00,
2013-11-30 12:03:00,37.9,27.7,30.30,WSW,251,6.9,6.9,66,0.00,,,0.00,315.0,meteobridge,2013-11-30 17:03:00,
2013-11-30 12:08:00,38.1,27.9,30.29,SSW,208,2.9,8.1,66,0.00,,,0.00,446.0,meteobridge,2013-11-30 17:08:00,
2013-11-30 12:14:00,38.3,27.5,30.28,SE,145,4.0,8.1,65,0.00,,,0.00,473.0,meteobridge,2013-11-30 17:14:00,
2013-11-30 12:19:00,38.7,28.2,30.28,WSW,254,0.9,10.1,66,0.00,,,0.00,508.0,meteobridge,2013-11-30 17:19:00,
2013-11-30 12:24:00,38.8,28.4,30.28,SSW,213,0.9,4.9,66,0.00,,,0.00,519.0,meteobridge,2013-11-30 17:24:00,
2013-11-30 12:29:00,39.4,28.6,30.28,SW,225,6.0,10.1,65,0.00,,,0.00,519.0,meteobridge,2013-11-30 17:29:00,
2013-11-30 12:34:00,39.4,28.2,30.27,SW,229,4.0,6.9,64,0.00,,,0.00,519.0,meteobridge,2013-11-30 17:34:00,
2013-11-30 12:39:00,39.6,28.0,30.27,South,185,4.9,8.9,63,0.00,,,0.00,513.0,meteobridge,2013-11-30 17:39:00,
2013-11-30 12:44:00,39.7,28.2,30.27,SW,216,6.9,8.9,63,0.00,,,0.00,508.0,meteobridge,2013-11-30 17:44:00,
2013-11-30 12:49:00,39.7,28.2,30.26,SSW,197,2.9,8.1,63,0.00,,,0.00,506.0,meteobridge,2013-11-30 17:49:00,
2013-11-30 12:54:00,39.9,28.4,30.26,SSW,197,4.0,8.1,63,0.00,,,0.00,503.0,meteobridge,2013-11-30 17:54:00,
2013-11-30 12:59:00,39.9,28.8,30.25,SSW,210,2.9,6.0,64,0.00,,,0.00,501.0,meteobridge,2013-11-30 17:59:00,
2013-11-30 13:04:00,40.1,28.6,30.25,SW,223,6.9,8.1,63,0.00,,,0.00,497.0,meteobridge,2013-11-30 18:04:00,
2013-11-30 13:09:00,40.3,28.2,30.25,SSW,199,6.0,8.1,62,0.00,,,0.00,490.0,meteobridge,2013-11-30 18:09:00,
2013-11-30 13:14:00,40.5,28.4,30.24,South,170,8.1,10.1,62,0.00,,,0.00,487.0,meteobridge,2013-11-30 18:14:00,
2013-11-30 13:19:00,40.6,28.6,30.24,South,180,4.0,6.9,62,0.00,,,0.00,483.0,meteobridge,2013-11-30 18:19:00,
2013-11-30 13:24:00,40.6,28.6,30.24,SSW,208,4.0,8.1,62,0.00,,,0.00,478.0,meteobridge,2013-11-30 18:24:00,
2013-11-30 13:29:00,40.8,28.8,30.23,South,180,2.0,8.1,62,0.00,,,0.00,473.0,meteobridge,2013-11-30 18:29:00,
2013-11-30 13:34:00,41.2,29.5,30.23,SW,217,6.0,8.9,63,0.00,,,0.00,469.0,meteobridge,2013-11-30 18:34:00,
2013-11-30 13:39:00,41.4,28.9,30.23,SSE,158,4.9,6.9,61,0.00,,,0.00,462.0,meteobridge,2013-11-30 18:39:00,
2013-11-30 13:44:00,41.5,29.1,30.23,SSE,149,4.9,8.1,61,0.00,,,0.00,455.0,meteobridge,2013-11-30 18:44:00,
2013-11-30 13:49:00,41.5,29.5,30.22,SSE,164,2.9,4.9,62,0.00,,,0.00,450.0,meteobridge,2013-11-30 18:49:00,
2013-11-30 13:54:00,41.7,28.9,30.22,SSW,207,4.9,8.1,60,0.00,,,0.00,441.0,meteobridge,2013-11-30 18:54:00,
2013-11-30 13:59:00,41.9,28.9,30.22,SSW,210,4.9,8.1,60,0.00,,,0.00,434.0,meteobridge,2013-11-30 18:59:00,
2013-11-30 14:04:00,41.9,29.5,30.21,SW,232,2.9,6.0,61,0.00,,,0.00,424.0,meteobridge,2013-11-30 19:04:00,
2013-11-30 14:09:00,42.1,29.1,30.21,SSW,212,4.0,6.9,60,0.00,,,0.00,417.0,meteobridge,2013-11-30 19:09:00,
2013-11-30 14:15:00,42.3,29.8,30.20,South,185,2.0,6.9,61,0.00,,,0.00,406.0,meteobridge,2013-11-30 19:15:00,
2013-11-30 14:20:00,42.3,28.9,30.20,SSW,212,6.0,8.9,59,0.00,,,0.00,397.0,meteobridge,2013-11-30 19:20:00,
2013-11-30 14:25:00,42.3,29.3,30.20,SSW,210,2.9,4.9,60,0.00,,,0.00,387.0,meteobridge,2013-11-30 19:25:00,
2013-11-30 14:30:00,42.4,29.5,30.20,South,180,8.9,8.9,60,0.00,,,0.00,376.0,meteobridge,2013-11-30 19:30:00,
2013-11-30 14:35:00,42.6,29.3,30.19,SW,222,2.9,6.9,59,0.00,,,0.00,367.0,meteobridge,2013-11-30 19:35:00,
2013-11-30 14:40:00,42.8,29.5,30.19,SSW,210,4.9,6.9,59,0.00,,,0.00,355.0,meteobridge,2013-11-30 19:40:00,
2013-11-30 14:45:00,43.0,29.7,30.19,South,175,4.0,6.0,59,0.00,,,0.00,343.0,meteobridge,2013-11-30 19:45:00,
2013-11-30 14:50:00,43.0,29.3,30.18,South,180,2.9,4.0,58,0.00,,,0.00,336.0,meteobridge,2013-11-30 19:50:00,
2013-11-30 14:55:00,43.2,29.8,30.18,South,171,4.0,8.1,59,0.00,,,0.00,320.0,meteobridge,2013-11-30 19:55:00,
2013-11-30 15:00:00,43.2,29.8,30.17,SW,231,2.9,8.9,59,0.00,,,0.00,287.0,meteobridge,2013-11-30 20:00:00,
2013-11-30 15:05:00,43.2,29.8,30.17,SSW,203,4.9,6.0,59,0.00,,,0.00,225.0,meteobridge,2013-11-30 20:05:00,
2013-11-30 15:10:00,43.2,29.8,30.17,WSW,241,4.9,6.9,59,0.00,,,0.00,190.0,meteobridge,2013-11-30 20:10:00,
2013-11-30 15:15:00,43.2,29.8,30.17,SW,228,8.1,8.1,59,0.00,,,0.00,144.0,meteobridge,2013-11-30 20:15:00,
2013-11-30 15:20:00,43.2,29.3,30.17,South,180,6.9,6.9,58,0.01,,,0.01,125.0,meteobridge,2013-11-30 20:20:00,
2013-11-30 15:25:00,43.3,29.5,30.16,South,185,2.9,6.9,58,0.01,,,0.01,90.0,meteobridge,2013-11-30 20:25:00,
2013-11-30 15:30:00,43.3,29.5,30.16,SW,214,8.1,10.1,58,0.01,,,0.01,111.0,meteobridge,2013-11-30 20:30:00,
2013-11-30 15:35:00,43.3,29.5,30.16,SSW,196,4.9,6.9,58,0.01,,,0.01,102.0,meteobridge,2013-11-30 20:35:00,
2013-11-30 15:40:00,43.2,29.3,30.16,SW,219,2.9,8.9,58,0.01,,,0.01,76.0,meteobridge,2013-11-30 20:40:00,
2013-11-30 15:45:00,43.2,29.8,30.16,SSW,202,6.0,11.0,59,0.01,,,0.01,81.0,meteobridge,2013-11-30 20:45:00,
2013-11-30 15:51:00,43.0,29.7,30.16,SW,223,2.0,6.0,59,0.01,,,0.01,121.0,meteobridge,2013-11-30 20:51:00,
2013-11-30 15:56:00,43.0,29.7,30.16,SSW,197,2.9,6.9,59,0.01,,,0.01,83.0,meteobridge,2013-11-30 20:56:00,
2013-11-30 16:01:00,42.8,29.5,30.16,SSW,209,2.0,8.1,59,0.01,,,0.01,69.0,meteobridge,2013-11-30 21:01:00,
2013-11-30 16:06:00,42.6,29.3,30.15,SW,230,6.0,6.0,59,0.01,,,0.01,76.0,meteobridge,2013-11-30 21:06:00,
2013-11-30 16:11:00,42.6,29.7,30.15,SSW,199,2.9,8.1,60,0.01,,,0.01,63.0,meteobridge,2013-11-30 21:11:00,
2013-11-30 16:16:00,42.6,29.7,30.15,SW,222,6.0,6.9,60,0.01,,,0.01,65.0,meteobridge,2013-11-30 21:16:00,
2013-11-30 16:21:00,42.4,30.0,30.15,WSW,237,8.1,8.1,61,0.00,,,0.01,67.0,meteobridge,2013-11-30 21:21:00,
2013-11-30 16:26:00,42.4,30.0,30.15,WSW,237,4.9,6.9,61,0.00,,,0.01,56.0,meteobridge,2013-11-30 21:26:00,
2013-11-30 16:31:00,42.3,29.8,30.15,WSW,254,8.1,8.9,61,0.00,,,0.01,42.0,meteobridge,2013-11-30 21:31:00,
2013-11-30 16:36:00,42.3,29.8,30.15,SW,220,2.0,6.0,61,0.00,,,0.01,33.0,meteobridge,2013-11-30 21:36:00,
2013-11-30 16:41:00,41.9,29.5,30.15,SSW,207,0.9,8.1,61,0.00,,,0.01,26.0,meteobridge,2013-11-30 21:41:00,
2013-11-30 16:46:00,41.7,29.7,30.15,SSW,208,2.0,6.0,62,0.00,,,0.01,18.0,meteobridge,2013-11-30 21:46:00,
2013-11-30 16:51:00,41.5,29.8,30.15,SW,235,0.0,2.9,63,0.00,,,0.01,12.0,meteobridge,2013-11-30 21:51:00,
2013-11-30 16:56:00,41.4,29.7,30.15,SSW,207,0.0,2.9,63,0.00,,,0.01,9.0,meteobridge,2013-11-30 21:56:00,
2013-11-30 17:01:00,40.8,29.1,30.15,WSW,249,0.9,2.0,63,0.00,,,0.01,5.0,meteobridge,2013-11-30 22:01:00,
2013-11-30 17:06:00,40.5,29.3,30.15,WSW,249,2.0,2.0,64,0.00,,,0.01,5.0,meteobridge,2013-11-30 22:06:00,
2013-11-30 17:11:00,39.9,29.1,30.15,WSW,247,0.0,2.0,65,0.00,,,0.01,0.0,meteobridge,2013-11-30 22:11:00,
2013-11-30 17:16:00,39.6,28.8,30.15,WSW,247,0.9,2.0,65,0.00,,,0.01,0.0,meteobridge,2013-11-30 22:16:00,
2013-11-30 17:22:00,39.0,28.6,30.15,WSW,247,2.0,2.0,66,0.00,,,0.01,0.0,meteobridge,2013-11-30 22:22:00,
2013-11-30 17:27:00,38.5,28.4,30.15,WSW,247,0.0,0.0,67,0.00,,,0.01,0.0,meteobridge,2013-11-30 22:27:00,
2013-11-30 17:32:00,37.9,28.4,30.15,WSW,247,0.0,0.0,68,0.00,,,0.01,0.0,meteobridge,2013-11-30 22:32:00,
2013-11-30 17:37:00,37.6,28.4,30.15,WSW,247,0.0,0.0,69,0.00,,,0.01,0.0,meteobridge,2013-11-30 22:37:00,
2013-11-30 17:42:00,37.0,28.2,30.15,WSW,247,0.0,0.0,70,0.00,,,0.01,0.0,meteobridge,2013-11-30 22:42:00,
2013-11-30 17:48:00,36.5,28.0,30.15,WSW,247,0.0,0.0,71,0.00,,,0.01,0.0,meteobridge,2013-11-30 22:48:00,
2013-11-30 17:53:00,36.1,27.7,30.15,WSW,247,0.0,0.0,71,0.00,,,0.01,0.0,meteobridge,2013-11-30 22:53:00,
2013-11-30 17:58:00,35.6,27.5,30.15,WSW,247,0.0,0.0,72,0.00,,,0.01,0.0,meteobridge,2013-11-30 22:58:00,
2013-11-30 18:03:00,35.2,27.5,30.15,WSW,247,0.0,0.0,73,0.00,,,0.01,0.0,meteobridge,2013-11-30 23:03:00,
2013-11-30 18:08:00,34.9,27.5,30.15,WSW,247,0.0,0.0,74,0.00,,,0.01,0.0,meteobridge,2013-11-30 23:08:00,
2013-11-30 18:13:00,34.3,27.0,30.15,WSW,247,0.0,0.0,74,0.00,,,0.01,0.0,meteobridge,2013-11-30 23:13:00,
2013-11-30 18:18:00,34.0,27.0,30.15,WSW,247,0.0,0.0,75,0.00,,,0.01,0.0,meteobridge,2013-11-30 23:18:00,
2013-11-30 18:23:00,33.6,26.8,30.15,WSW,247,0.0,0.0,76,0.00,,,0.01,0.0,meteobridge,2013-11-30 23:23:00,
2013-11-30 18:28:00,33.4,27.0,30.14,WSW,247,0.0,0.0,77,0.00,,,0.01,0.0,meteobridge,2013-11-30 23:28:00,
2013-11-30 18:33:00,33.1,27.0,30.14,WSW,247,0.0,0.0,78,0.00,,,0.01,0.0,meteobridge,2013-11-30 23:33:00,
2013-11-30 18:38:00,32.7,27.0,30.14,WSW,247,0.0,0.0,79,0.00,,,0.01,0.0,meteobridge,2013-11-30 23:38:00,
2013-11-30 18:43:00,32.5,27.1,30.14,WSW,247,0.0,0.0,80,0.00,,,0.01,0.0,meteobridge,2013-11-30 23:43:00,
2013-11-30 18:49:00,32.4,27.0,30.14,WSW,247,0.0,0.0,80,0.00,,,0.01,0.0,meteobridge,2013-11-30 23:49:00,
2013-11-30 18:54:00,32.4,27.0,30.14,WSW,247,0.0,0.0,80,0.00,,,0.01,0.0,meteobridge,2013-11-30 23:54:00,
2013-11-30 18:59:00,32.2,26.8,30.14,WSW,247,0.0,0.0,80,0.00,,,0.01,0.0,meteobridge,2013-11-30 23:59:00,
2013-11-30 19:04:00,31.8,26.6,30.14,WSW,247,0.0,0.0,81,0.00,,,0.01,0.0,meteobridge,2013-12-01 00:04:00,
2013-11-30 19:10:00,31.6,26.4,30.14,WSW,247,0.0,0.0,81,0.00,,,0.01,0.0,meteobridge,2013-12-01 00:10:00,
2013-11-30 19:14:00,31.5,26.2,30.14,WSW,247,0.0,0.0,81,0.00,,,0.01,0.0,meteobridge,2013-12-01 00:14:00,
2013-11-30 19:19:00,31.3,26.1,30.14,WSW,247,0.0,0.0,81,0.00,,,0.01,0.0,meteobridge,2013-12-01 00:19:00,
2013-11-30 19:25:00,30.9,26.1,30.14,WSW,247,0.0,0.0,82,0.00,,,0.01,0.0,meteobridge,2013-12-01 00:25:00,
2013-11-30 19:30:00,30.7,26.2,30.14,WSW,247,0.0,0.0,83,0.00,,,0.01,0.0,meteobridge,2013-12-01 00:30:00,
2013-11-30 19:35:00,30.7,26.2,30.14,WSW,247,0.0,0.0,83,0.00,,,0.01,0.0,meteobridge,2013-12-01 00:35:00,
2013-11-30 19:40:00,30.6,26.1,30.14,WSW,247,0.0,0.0,83,0.00,,,0.01,0.0,meteobridge,2013-12-01 00:40:00,
2013-11-30 19:45:00,30.4,26.1,30.13,WSW,247,0.0,0.0,84,0.00,,,0.01,0.0,meteobridge,2013-12-01 00:45:00,
2013-11-30 19:50:00,30.2,25.9,30.14,WSW,247,0.0,0.0,84,0.00,,,0.01,0.0,meteobridge,2013-12-01 00:50:00,
2013-11-30 19:56:00,30.0,26.1,30.13,WSW,247,0.0,0.0,85,0.00,,,0.01,0.0,meteobridge,2013-12-01 00:56:00,
2013-11-30 20:01:00,30.0,26.1,30.13,WSW,247,0.0,0.0,85,0.00,,,0.01,0.0,meteobridge,2013-12-01 01:01:00,
2013-11-30 20:06:00,29.8,25.9,30.13,WSW,247,0.0,0.0,85,0.00,,,0.01,0.0,meteobridge,2013-12-01 01:06:00,
2013-11-30 20:11:00,29.8,25.9,30.13,WSW,247,0.0,0.0,85,0.00,,,0.01,0.0,meteobridge,2013-12-01 01:11:00,
2013-11-30 20:17:00,29.7,25.7,30.13,WSW,247,0.0,0.0,85,0.00,,,0.01,0.0,meteobridge,2013-12-01 01:17:00,
2013-11-30 20:22:00,29.5,25.5,30.13,WSW,247,0.0,0.0,85,0.00,,,0.01,0.0,meteobridge,2013-12-01 01:22:00,
2013-11-30 20:27:00,29.5,25.5,30.13,WSW,247,0.0,0.0,85,0.00,,,0.01,0.0,meteobridge,2013-12-01 01:27:00,
2013-11-30 20:32:00,29.3,25.3,30.12,WSW,247,0.0,0.0,85,0.00,,,0.01,0.0,meteobridge,2013-12-01 01:32:00,
2013-11-30 20:37:00,29.1,25.2,30.12,WSW,247,0.0,0.0,85,0.00,,,0.01,0.0,meteobridge,2013-12-01 01:37:00,
2013-11-30 20:42:00,28.9,25.3,30.12,WSW,247,0.0,0.0,86,0.00,,,0.01,0.0,meteobridge,2013-12-01 01:42:00,
2013-11-30 20:44:00,28.9,25.3,30.12,WSW,247,0.0,0.0,86,0.00,,,0.01,0.0,meteobridge,2013-12-01 01:44:00,
2013-11-30 20:49:00,28.9,25.5,30.12,WSW,247,0.0,0.0,87,0.00,,,0.01,0.0,meteobridge,2013-12-01 01:49:00,
2013-11-30 20:54:00,28.8,25.3,30.12,WSW,247,0.0,0.0,87,0.00,,,0.01,0.0,meteobridge,2013-12-01 01:54:00,
2013-11-30 21:00:00,28.8,25.3,30.12,WSW,247,0.0,0.0,87,0.00,,,0.01,0.0,meteobridge,2013-12-01 02:00:00,
2013-11-30 21:05:00,28.6,25.2,30.12,WSW,247,0.0,0.0,87,0.00,,,0.01,0.0,meteobridge,2013-12-01 02:05:00,
2013-11-30 21:11:00,28.6,25.5,30.12,WSW,247,0.0,0.0,88,0.00,,,0.01,0.0,meteobridge,2013-12-01 02:11:00,
2013-11-30 21:16:00,28.6,25.5,30.12,WSW,247,0.0,0.0,88,0.00,,,0.01,0.0,meteobridge,2013-12-01 02:16:00,
2013-11-30 21:21:00,28.4,25.3,30.12,WSW,247,0.0,0.0,88,0.00,,,0.01,0.0,meteobridge,2013-12-01 02:21:00,
2013-11-30 21:26:00,28.2,25.2,30.12,WSW,247,0.0,0.0,88,0.00,,,0.01,0.0,meteobridge,2013-12-01 02:26:00,
2013-11-30 21:31:00,28.2,25.2,30.12,WSW,247,0.0,0.0,88,0.00,,,0.01,0.0,meteobridge,2013-12-01 02:31:00,
2013-11-30 21:37:00,28.0,25.0,30.12,WSW,247,0.0,0.0,88,0.00,,,0.01,0.0,meteobridge,2013-12-01 02:37:00,
2013-11-30 21:42:00,28.0,25.2,30.12,WSW,247,0.0,0.0,89,0.00,,,0.01,0.0,meteobridge,2013-12-01 02:42:00,
2013-11-30 21:47:00,28.0,25.2,30.12,WSW,247,0.0,0.0,89,0.00,,,0.01,0.0,meteobridge,2013-12-01 02:47:00,
2013-11-30 21:52:00,28.0,25.2,30.12,WSW,247,0.0,0.0,89,0.00,,,0.01,0.0,meteobridge,2013-12-01 02:52:00,
2013-11-30 21:57:00,27.9,25.0,30.11,WSW,247,0.0,0.0,89,0.00,,,0.01,0.0,meteobridge,2013-12-01 02:57:00,
2013-11-30 22:03:00,27.9,25.0,30.11,WSW,247,0.0,0.0,89,0.00,,,0.01,0.0,meteobridge,2013-12-01 03:03:00,
2013-11-30 22:08:00,27.9,25.0,30.11,WSW,247,0.0,0.0,89,0.00,,,0.01,0.0,meteobridge,2013-12-01 03:08:00,
2013-11-30 22:13:00,27.7,25.2,30.11,WSW,247,0.0,0.0,90,0.00,,,0.01,0.0,meteobridge,2013-12-01 03:13:00,
2013-11-30 22:18:00,27.7,25.2,30.11,WSW,247,0.0,0.0,90,0.00,,,0.01,0.0,meteobridge,2013-12-01 03:18:00,
2013-11-30 22:23:00,27.7,25.2,30.11,WSW,247,0.0,0.0,90,0.00,,,0.01,0.0,meteobridge,2013-12-01 03:23:00,
2013-11-30 22:29:00,27.5,25.0,30.11,WSW,247,0.0,0.0,90,0.00,,,0.01,0.0,meteobridge,2013-12-01 03:29:00,
2013-11-30 22:34:00,27.5,25.2,30.11,WSW,247,0.0,0.0,91,0.00,,,0.01,0.0,meteobridge,2013-12-01 03:34:00,
2013-11-30 22:39:00,27.3,25.0,30.11,WSW,247,0.0,2.0,91,0.00,,,0.01,0.0,meteobridge,2013-12-01 03:39:00,
2013-11-30 22:44:00,27.3,25.0,30.11,WSW,247,0.0,0.0,91,0.00,,,0.01,0.0,meteobridge,2013-12-01 03:44:00,
2013-11-30 22:49:00,27.3,25.0,30.10,WSW,247,0.0,0.0,91,0.00,,,0.01,0.0,meteobridge,2013-12-01 03:49:00,
2013-11-30 22:54:00,27.3,25.0,30.11,WSW,247,0.0,0.0,91,0.00,,,0.01,0.0,meteobridge,2013-12-01 03:54:00,
2013-11-30 22:59:00,27.3,25.0,30.10,WSW,247,0.0,0.0,91,0.00,,,0.01,0.0,meteobridge,2013-12-01 03:59:00,
2013-11-30 23:05:00,27.3,25.0,30.10,WSW,247,0.0,0.0,91,0.00,,,0.01,0.0,meteobridge,2013-12-01 04:05:00,
2013-11-30 23:10:00,27.3,25.0,30.10,WSW,247,0.0,0.0,91,0.00,,,0.01,0.0,meteobridge,2013-12-01 04:10:00,
2013-11-30 23:15:00,27.1,24.8,30.10,WSW,247,0.0,0.0,91,0.00,,,0.01,0.0,meteobridge,2013-12-01 04:15:00,
2013-11-30 23:20:00,27.1,24.8,30.10,WSW,247,0.0,0.0,91,0.00,,,0.01,0.0,meteobridge,2013-12-01 04:20:00,
2013-11-30 23:25:00,27.1,24.8,30.09,WSW,247,0.0,0.0,91,0.00,,,0.01,0.0,meteobridge,2013-12-01 04:25:00,
2013-11-30 23:31:00,27.1,24.8,30.10,WSW,247,0.0,0.0,91,0.00,,,0.01,0.0,meteobridge,2013-12-01 04:31:00,
2013-11-30 23:36:00,27.0,24.6,30.09,WSW,247,0.0,0.0,91,0.00,,,0.01,0.0,meteobridge,2013-12-01 04:36:00,
2013-11-30 23:41:00,27.0,24.6,30.09,WSW,247,0.0,0.0,91,0.00,,,0.01,0.0,meteobridge,2013-12-01 04:41:00,
2013-11-30 23:46:00,27.0,24.6,30.09,WSW,247,0.0,0.0,91,0.00,,,0.01,0.0,meteobridge,2013-12-01 04:46:00,
2013-11-30 23:51:00,27.0,25.0,30.10,WSW,247,0.0,0.0,92,0.00,,,0.01,0.0,meteobridge,2013-12-01 04:51:00,
2013-11-30 23:56:00,27.0,25.0,30.09,WSW,247,0.0,0.0,92,0.00,,,0.01,0.0,meteobridge,2013-12-01 04:56:00,